Walnut Ridge, AR

8:47 PM CDT on May 20, 2018 (GMT -0500)
Walnut Ridge Regional

Weather History for KARG - December, 2012

Change the Weather History Date:

Thursday, December 20, 2012

  Actual Average Record
Temperature  
Mean Temperature 55 °F -  
Max Temperature 62 °F 42 °F 66 °F (2013)
Min Temperature 48 °F 27 °F 15 °F (1996)
Degree Days  
Heating Degree Days 10    
Growing Degree Days 5 (Base 50)    
Moisture  
Dew Point 51 °F    
Average Humidity 84    
Maximum Humidity 100    
Minimum Humidity 71    
Precipitation  
Precipitation 0.25 in - - ()
Sea Level Pressure  
Sea Level Pressure 29.80 in    
Wind  
Wind Speed 24 mph (West)    
Max Wind Speed 32 mph    
Max Gust Speed 46 mph    
Visibility 10 miles    
Events Thunderstorm    
Averages and records for this station are not official NWS values.
T = Trace of Precipitation, MM = Missing Value Source: NWS Daily Summary

Daily Weather History Graph

Daily Weather History Graph

Search for Another Location

Airport or City:

Astronomy

Dec. 20, 2012 Rise Set
Actual Time 7:10 AM CST 4:52 PM CST
Civil Twilight 6:41 AM CST 5:21 PM CST
Nautical Twilight 6:09 AM CST 5:53 PM CST
Astronomical Twilight 5:38 AM CST 6:24 PM CST
Moon 12:02 PM CST (12/20) 12:07 AM CST (12/20)
Length of Visible Light 10h 39m
Length of Day
9h 42m
First Quarter, 55% of the Moon is Illuminated
Dec 20
First Quarter
Dec 28
Full
Jan 4
Last Quarter
Jan 11
New
Jan 18
First Quarter

Hourly Weather History & Observations

Time (CST) Temp. Dew Point Humidity Pressure Visibility Wind Dir Wind Speed Gust Speed Precip Events Conditions
12:15 AM 60.8 °F 51.8 °F 72% 29.55 in 10.0 mi SSE 25.3 mph 32.2 mph N/A   Mostly Cloudy
12:35 AM 60.8 °F 53.6 °F 77% 29.54 in 10.0 mi SSE 24.2 mph 32.2 mph N/A   Overcast
12:55 AM 60.8 °F 53.6 °F 77% 29.52 in 10.0 mi South 20.7 mph 27.6 mph N/A   Overcast
1:15 AM 62.6 °F 55.4 °F 77% 29.50 in 10.0 mi South 26.5 mph 33.4 mph N/A   Overcast
1:35 AM 62.6 °F 57.2 °F 82% 29.49 in 10.0 mi South 28.8 mph 38.0 mph N/A   Overcast
1:55 AM 62.6 °F 57.2 °F 82% 29.47 in 10.0 mi South 28.8 mph 36.8 mph N/A   Overcast
2:15 AM - - N/A% 29.54 in 3.0 mi WSW 27.6 mph 40.3 mph 0.11 in Thunderstorm Overcast
2:55 AM 57.2 °F 57.2 °F 100% 29.53 in 10.0 mi SSW 11.5 mph - 0.20 in   Overcast
3:55 AM 55.4 °F 55.4 °F 100% 29.49 in 9.0 mi South 15.0 mph - 0.04 in   Overcast
4:15 AM 55.4 °F 55.4 °F 100% 29.47 in 10.0 mi South 16.1 mph - 0.01 in   Mostly Cloudy
4:36 AM 55.4 °F 53.6 °F 94% 29.47 in 10.0 mi South 21.9 mph 26.5 mph 0.01 in   Partly Cloudy
4:55 AM 55.4 °F 53.6 °F 94% 29.47 in 10.0 mi SSW 23.0 mph 26.5 mph 0.01 in   Clear
5:15 AM 55.4 °F 53.6 °F 94% 29.48 in 10.0 mi SSW 20.7 mph 27.6 mph N/A   Partly Cloudy
5:55 AM 53.6 °F 48.2 °F 82% 29.50 in 10.0 mi SW 23.0 mph 28.8 mph N/A   Scattered Clouds
6:15 AM 51.8 °F 44.6 °F 76% 29.51 in 10.0 mi SW 23.0 mph 26.5 mph N/A   Scattered Clouds
6:35 AM 51.8 °F 42.8 °F 71% 29.52 in 10.0 mi SW 23.0 mph - N/A   Clear
7:15 AM 48.2 °F 39.2 °F 71% 29.56 in 10.0 mi SW 20.7 mph 28.8 mph N/A   Mostly Cloudy
7:35 AM 48.2 °F 39.2 °F 71% 29.57 in 10.0 mi WSW 18.4 mph 26.5 mph N/A   Overcast
7:55 AM - - N/A% 29.60 in 10.0 mi West 31.1 mph 41.4 mph N/A   Overcast
8:16 AM - - N/A% 29.62 in 10.0 mi West 29.9 mph 39.1 mph N/A   Overcast
8:35 AM - - N/A% 29.64 in 10.0 mi West 32.2 mph 39.1 mph N/A   Overcast
8:55 AM - - N/A% 29.66 in 10.0 mi West 26.5 mph 35.7 mph N/A   Overcast
9:15 AM - - N/A% 29.68 in 10.0 mi West 26.5 mph 33.4 mph N/A   Overcast
9:35 AM - - N/A% 29.71 in 10.0 mi West 21.9 mph 42.6 mph N/A   Overcast
9:55 AM - - N/A% 29.72 in 10.0 mi West 23.0 mph 33.4 mph N/A   Overcast
10:16 AM - - N/A% 29.73 in 10.0 mi West 32.2 mph 39.1 mph N/A   Overcast
10:35 AM - - N/A% 29.74 in 10.0 mi West 32.2 mph 36.8 mph N/A   Overcast
10:55 AM - - N/A% 29.76 in 10.0 mi West 28.8 mph 40.3 mph N/A   Overcast
11:15 AM - - N/A% 29.77 in 10.0 mi West 29.9 mph 40.3 mph N/A   Overcast
11:35 AM - - N/A% 29.78 in 10.0 mi West 27.6 mph 42.6 mph N/A   Overcast
11:55 AM - - N/A% 29.79 in 10.0 mi West 27.6 mph 38.0 mph N/A   Overcast
12:15 PM - - N/A% 29.80 in 10.0 mi West 28.8 mph 36.8 mph N/A   Overcast
12:35 PM - - N/A% 29.81 in 10.0 mi West 21.9 mph 33.4 mph N/A   Overcast
12:55 PM - - N/A% 29.82 in 10.0 mi West 18.4 mph 33.4 mph N/A   Overcast
1:15 PM - - N/A% 29.83 in 10.0 mi West 19.6 mph 31.1 mph N/A   Overcast
1:35 PM - - N/A% 29.84 in 10.0 mi West 25.3 mph 33.4 mph N/A   Overcast
1:55 PM - - N/A% 29.85 in 10.0 mi WNW 32.2 mph 46.0 mph N/A   Overcast
2:15 PM - - N/A% 29.86 in 10.0 mi West 28.8 mph 34.5 mph N/A   Overcast
2:55 PM - - N/A% 29.91 in 10.0 mi West 23.0 mph 40.3 mph N/A   Overcast
3:15 PM - - N/A% 29.93 in 10.0 mi West 28.8 mph 43.7 mph N/A   Overcast
3:35 PM - - N/A% 29.95 in 10.0 mi West 24.2 mph 35.7 mph N/A   Overcast
3:55 PM - - N/A% 29.96 in 10.0 mi West 31.1 mph 36.8 mph N/A   Mostly Cloudy
4:15 PM - - N/A% 29.98 in 10.0 mi WNW 24.2 mph 36.8 mph N/A   Partly Cloudy
4:55 PM - - N/A% 30.00 in 10.0 mi West 18.4 mph 29.9 mph N/A   Clear
5:15 PM - - N/A% 30.01 in 10.0 mi West 20.7 mph - N/A   Clear
5:35 PM - - N/A% 30.02 in 10.0 mi West 20.7 mph 27.6 mph N/A   Clear
5:55 PM - - N/A% 30.03 in 10.0 mi West 23.0 mph 33.4 mph N/A   Clear
6:15 PM - - N/A% 30.03 in 10.0 mi WNW 28.8 mph 35.7 mph N/A   Clear
6:35 PM - - N/A% 30.05 in 10.0 mi West 23.0 mph 33.4 mph N/A   Clear
6:55 PM - - N/A% 30.06 in 10.0 mi WNW 26.5 mph 38.0 mph N/A   Clear
7:15 PM - - N/A% 30.08 in 10.0 mi WNW 23.0 mph 29.9 mph N/A   Clear
7:35 PM - - N/A% 30.09 in 10.0 mi WNW 20.7 mph 32.2 mph N/A   Clear
7:55 PM - - N/A% 30.10 in 10.0 mi WNW 20.7 mph 27.6 mph N/A   Clear
8:15 PM - - N/A% 30.10 in 10.0 mi West 20.7 mph 27.6 mph N/A   Clear
8:55 PM - - N/A% 30.11 in 10.0 mi West 19.6 mph 28.8 mph N/A   Clear
9:15 PM - - N/A% 30.12 in 10.0 mi WNW 18.4 mph 23.0 mph N/A   Clear
9:35 PM - - N/A% 30.13 in 10.0 mi WNW 17.3 mph 24.2 mph N/A   Clear
9:55 PM - - N/A% 30.14 in 10.0 mi West 21.9 mph 31.1 mph N/A   Clear
10:15 PM - - N/A% 30.15 in 10.0 mi West 16.1 mph 25.3 mph N/A   Clear
11:15 PM - - N/A% 30.17 in 10.0 mi West 15.0 mph 20.7 mph N/A   Clear
11:35 PM - - N/A% 30.17 in 10.0 mi West 17.3 mph 23.0 mph N/A   Clear
11:55 PM - - N/A% 30.17 in 10.0 mi WNW 18.4 mph 24.2 mph N/A   Clear